TimeCDT,TemperatureF,Dew PointF,Humidity,Sea Level PressureIn,VisibilityMPH,Wind Direction,Wind SpeedMPH,Gust SpeedMPH,PrecipitationIn,Events,Conditions,WindDirDegrees,DateUTC
12:58 AM,73.6,68.9,85,29.96,10.0,SSE,3.5,-,N/A,,Overcast,160,2013-09-18 05:58:00
1:58 AM,73.2,68.5,85,29.95,10.0,SSE,3.5,-,N/A,,Overcast,150,2013-09-18 06:58:00
2:58 AM,73.4,68.2,84,29.94,10.0,Calm,Calm,-,N/A,,Overcast,0,2013-09-18 07:58:00
3:58 AM,73.0,67.6,83,29.93,10.0,South,2.3,-,N/A,,Mostly Cloudy,170,2013-09-18 08:58:00
4:58 AM,71.6,67.3,86,29.93,10.0,South,5.8,-,N/A,,Scattered Clouds,170,2013-09-18 09:58:00
5:58 AM,72.1,67.3,85,29.92,10.0,South,5.8,-,N/A,,Scattered Clouds,180,2013-09-18 10:58:00
6:09 AM,71.6,68.0,88,29.94,10.0,South,5.8,-,N/A,Rain,Light Rain,180,2013-09-18 11:09:00
6:19 AM,71.6,68.0,88,29.94,10.0,South,5.8,-,N/A,,Scattered Clouds,180,2013-09-18 11:19:00
6:58 AM,73.0,67.1,82,29.93,10.0,South,6.9,-,0.00,,Overcast,170,2013-09-18 11:58:00
7:58 AM,72.9,68.0,85,29.95,10.0,South,5.8,-,N/A,,Overcast,180,2013-09-18 12:58:00
8:58 AM,76.1,68.0,76,29.96,10.0,South,8.1,-,N/A,,Mostly Cloudy,180,2013-09-18 13:58:00
9:58 AM,79.0,69.1,72,29.98,10.0,SSW,8.1,-,N/A,,Scattered Clouds,200,2013-09-18 14:58:00
10:58 AM,82.4,68.5,63,29.98,10.0,SW,11.5,17.3,N/A,,Scattered Clouds,230,2013-09-18 15:58:00
11:58 AM,86.4,68.5,55,29.96,10.0,SSW,10.4,-,N/A,,Clear,200,2013-09-18 16:58:00
12:58 PM,90.3,66.0,45,29.94,10.0,South,18.4,21.9,N/A,,Scattered Clouds,180,2013-09-18 17:58:00
1:04 PM,89.6,66.2,46,29.96,10.0,SW,12.7,21.9,N/A,,Partly Cloudy,230,2013-09-18 18:04:00
1:58 PM,90.5,64.8,42,29.92,10.0,SW,13.8,23.0,N/A,,Partly Cloudy,220,2013-09-18 18:58:00
2:58 PM,92.1,62.4,37,29.89,10.0,SSW,13.8,23.0,N/A,,Partly Cloudy,200,2013-09-18 19:58:00
3:37 PM,93.2,62.6,36,29.90,10.0,South,16.1,20.7,N/A,,Clear,170,2013-09-18 20:37:00
3:58 PM,92.1,63.7,39,29.86,10.0,South,12.7,20.7,N/A,,Clear,170,2013-09-18 20:58:00
4:58 PM,92.7,60.8,34,29.84,10.0,SSW,12.7,-,N/A,,Scattered Clouds,200,2013-09-18 21:58:00
5:58 PM,91.6,59.4,34,29.83,10.0,South,13.8,21.9,N/A,,Clear,180,2013-09-18 22:58:00
6:58 PM,89.4,59.9,37,29.83,10.0,South,10.4,-,N/A,,Clear,170,2013-09-18 23:58:00
7:58 PM,84.6,61.7,46,29.83,10.0,SSE,8.1,-,N/A,,Clear,160,2013-09-19 00:58:00
8:58 PM,83.1,62.4,49,29.86,10.0,SSE,8.1,-,N/A,,Mostly Cloudy,160,2013-09-19 01:58:00
9:58 PM,81.0,62.4,53,29.87,10.0,SSE,10.4,-,N/A,,Clear,160,2013-09-19 02:58:00
10:58 PM,79.5,61.9,55,29.87,10.0,SSE,10.4,-,N/A,,Mostly Cloudy,160,2013-09-19 03:58:00
11:58 PM,79.3,61.7,55,29.87,10.0,SSE,10.4,-,N/A,,Mostly Cloudy,160,2013-09-19 04:58:00